Newport, Oregon, United States (97365)
Lat: 44.64N, Lon: 124.05W
Wx Zone: ORZ002
Local Info
Past Weather Observations for Today

NOTE: This archive is for the closest National Weather Service station to Newport. Information may differ from the station used for current weather conditions.

Click here for Long-term Archive

Time Weather Temperature Dewpoint Humidity Pressure Winds Precip Visibility
15:55
Mostly Cloudy
Fog And Mist
54°F / 12°C 52°F / 11°C 94% 30.27 in
(1025 mb)
SW 6.9 mph
(SW 11 kph)
- 4SM
15:35
Mostly Cloudy
Fog And Mist
52°F / 11°C 52°F / 11°C 100% 30.27 in
(1025 mb)
SW 6.9 mph
(SW 11 kph)
- 4SM
15:15
Mostly Cloudy
Fog And Mist
52°F / 11°C 52°F / 11°C 100% 30.24 in
(1024 mb)
SW 8.1 mph
(SW 13 kph)
- 4SM
14:55
Mostly Cloudy
Fog And Mist
52°F / 11°C 52°F / 11°C 100% 30.24 in
(1024 mb)
SW 10.4 mph
(SW 17 kph)
- 4SM
14:35
Mostly Cloudy
Fog And Mist
52°F / 11°C 52°F / 11°C 100% 30.24 in
(1024 mb)
SW 12.7 mph
(SW 20 kph)
- 5SM
14:15
Overcast
Fog And Mist
52°F / 11°C 52°F / 11°C 100% 30.24 in
(1024 mb)
SW 12.7 mph
(SW 20 kph)
- 3SM
13:55
Overcast
Fog
52°F / 11°C 52°F / 11°C 100% 30.24 in
(1024 mb)
SW 10.4 mph
(SW 17 kph)
- 1/4SM
13:35
Overcast
Fog
52°F / 11°C 52°F / 11°C 100% 30.24 in
(1024 mb)
SSE 10.4 mph
(SSE 17 kph)
- 1/2SM
13:15
Overcast
Fog
52°F / 11°C 52°F / 11°C 100% 30.24 in
(1024 mb)
SW 10.4 mph
(SW 17 kph)
- M1/4SM
12:55
Overcast
Fog And Mist
52°F / 11°C 52°F / 11°C 100% 30.24 in
(1024 mb)
SW 8.1 mph
(SW 13 kph)
- 2SM
12:35
Overcast
Fog And Mist
52°F / 11°C 52°F / 11°C 100% 30.24 in
(1024 mb)
SW 10.4 mph
(SW 17 kph)
- 2 1/2SM
12:15
Overcast
Fog And Mist
54°F / 12°C 54°F / 12°C 100% 30.24 in
(1024 mb)
SW 10.4 mph
(SW 17 kph)
- 3/4SM
11:55
Overcast
Fog
54°F / 12°C 54°F / 12°C 100% 30.24 in
(1024 mb)
SW 8.1 mph
(SW 13 kph)
- 1/2SM
11:35
Overcast
Fog And Mist
54°F / 12°C 54°F / 12°C 100% 30.24 in
(1024 mb)
SW 9.2 mph
(SW 15 kph)
- 1 1/2SM
11:15
Overcast
Fog
54°F / 12°C 54°F / 12°C 100% 30.24 in
(1024 mb)
SW 10.4 mph
(SW 17 kph)
- 1/2SM
10:55
Overcast
Fog
52°F / 11°C 52°F / 11°C 100% 30.24 in
(1024 mb)
SW 10.4 mph
(SW 17 kph)
- 1/4SM
10:35
Overcast
Drizzle
54°F / 12°C 54°F / 12°C 100% 30.21 in
(1023 mb)
SW 11.5 mph
(SW 19 kph)
- 1/4SM
10:15
Overcast
Fog
54°F / 12°C 54°F / 12°C 100% 30.21 in
(1023 mb)
SW 10.4 mph
(SW 17 kph)
- 1/4SM
09:55
Overcast
Light Rain
54°F / 12°C 54°F / 12°C 100% 30.21 in
(1023 mb)
SSE 12.7 mph
(SSE 20 kph)
- 1/2SM
09:35
Overcast
Drizzle
54°F / 12°C 54°F / 12°C 100% 30.21 in
(1023 mb)
SSE 12.7 mph
(SSE 20 kph)
- 1SM
09:15
Overcast
Light Rain
54°F / 12°C 52°F / 11°C 94% 30.21 in
(1023 mb)
S 12.7 mph
(S 20 kph)
- 1 1/2SM
08:55
Overcast
Rain
54°F / 12°C 52°F / 11°C 94% 30.18 in
(1022 mb)
SSE 15 mph
(SSE 24 kph)
0.07 in
(1.78 mm)
3SM
08:35
Overcast
Rain
54°F / 12°C 52°F / 11°C 94% 30.18 in
(1022 mb)
SSE 15 mph
(SSE 24 kph)
0.07 in
(1.78 mm)
2SM
08:15
Overcast
Rain
54°F / 12°C 52°F / 11°C 94% 30.18 in
(1022 mb)
SSE 15 mph
(SSE 24 kph)
0.03 in
(0.76 mm)
1 1/4SM
07:55
Overcast
Rain
54°F / 12°C 52°F / 11°C 94% 30.18 in
(1022 mb)
SSE 13.8 mph
(SSE 22 kph)
0.14 in
(3.56 mm)
1 1/2SM
07:35
Overcast
Light Rain
54°F / 12°C 52°F / 11°C 94% 30.18 in
(1022 mb)
S 13.8 mph
(S 22 kph)
0.10 in
(2.54 mm)
1 3/4SM
07:15
Overcast
Heavy Rain
54°F / 12°C 52°F / 11°C 94% 30.15 in
(1021 mb)
SSE 15 mph
(SSE 24 kph)
0.04 in
(1.02 mm)
2 1/2SM
06:55
Overcast
Heavy Rain
54°F / 12°C 54°F / 12°C 100% 30.15 in
(1021 mb)
SSE 12.7 mph
(SSE 20 kph)
0.05 in
(1.27 mm)
4SM
06:35
Overcast
Light Rain
54°F / 12°C 52°F / 11°C 94% 30.15 in
(1021 mb)
S 13.8 mph
(S 22 kph)
0.04 in
(1.02 mm)
3SM
06:15
Overcast
Light Rain
54°F / 12°C 52°F / 11°C 94% 30.15 in
(1021 mb)
S 17.3 mph
(S 28 kph)
- 3SM
05:55
Overcast
Fog And Mist
55°F / 13°C 52°F / 11°C 88% 30.15 in
(1021 mb)
S 16.1 mph
(S 26 kph)
- 5SM
05:35
Overcast
54°F / 12°C 52°F / 11°C 94% 30.15 in
(1021 mb)
SSE 15 mph
(SSE 24 kph)
- 7SM
05:15
Mostly Cloudy
Fog And Mist
54°F / 12°C 52°F / 11°C 94% 30.15 in
(1021 mb)
SSE 15 mph
(SSE 24 kph)
- 5SM
04:55
Mostly Cloudy
54°F / 12°C 52°F / 11°C 94% 30.15 in
(1021 mb)
SSE 17.3 mph
(SSE 28 kph)
- 7SM
04:35
Overcast
54°F / 12°C 52°F / 11°C 94% 30.15 in
(1021 mb)
S 19.6 mph
(S 32 kph)
- 7SM
04:15
Overcast
54°F / 12°C 54°F / 12°C 100% 30.15 in
(1021 mb)
S 18.4 mph
(S 30 kph)
- 7SM
03:55
Overcast
Fog And Mist
54°F / 12°C 52°F / 11°C 94% 30.15 in
(1021 mb)
S 16.1 mph
(S 26 kph)
- 5SM
03:35
Overcast
54°F / 12°C 52°F / 11°C 94% 30.15 in
(1021 mb)
S 13.8 mph
(S 22 kph)
- 7SM
03:15
Overcast
Fog And Mist
54°F / 12°C 52°F / 11°C 94% 30.15 in
(1021 mb)
S 17.3 mph
(S 28 kph)
- 4SM
02:55
Overcast
Drizzle
54°F / 12°C 52°F / 11°C 94% 30.15 in
(1021 mb)
S 17.3 mph
(S 28 kph)
- 5SM
02:35
Overcast
Light Rain
54°F / 12°C 52°F / 11°C 94% 30.15 in
(1021 mb)
S 16.1 mph
(S 26 kph)
- 5SM
02:15
Overcast
Fog And Mist
54°F / 12°C 52°F / 11°C 94% 30.15 in
(1021 mb)
S 16.1 mph
(S 26 kph)
- 5SM
01:55
Overcast
Fog And Mist
54°F / 12°C 52°F / 11°C 94% 30.15 in
(1021 mb)
S 12.7 mph
(S 20 kph)
- 4SM
01:35
Overcast
Fog And Mist
54°F / 12°C 52°F / 11°C 94% 30.15 in
(1021 mb)
S 16.1 mph
(S 26 kph)
- 5SM
01:15
Overcast
Fog And Mist
54°F / 12°C 52°F / 11°C 94% 30.15 in
(1021 mb)
SSE 13.8 mph
(SSE 22 kph)
- 4SM
00:55
Overcast
Fog And Mist
54°F / 12°C 52°F / 11°C 94% 30.15 in
(1021 mb)
S 17.3 mph
(S 28 kph)
- 4SM
00:35
Mostly Cloudy
Fog And Mist
54°F / 12°C 54°F / 12°C 100% 30.15 in
(1021 mb)
S 13.8 mph
(S 22 kph)
- 5SM
00:15
Overcast
Fog And Mist
54°F / 12°C 54°F / 12°C 100% 30.15 in
(1021 mb)
S 10.4 mph
(S 17 kph)
- 2 1/2SM
Time Weather Temperature Dewpoint Humidity Pressure Winds Precip Visibility


Weather for websites

WeatherForYou.com, LLC is not responsible for any damages or problems caused by this service. Current weather conditions are obtained from the closest station including government and personal stations which may have varying degrees of accuracy. Weather forecasts are derived from the NOAA NDFD. Like all things, this site belongs to Jesus Christ... He just trusts us to maintain it. If you have any questions or comments email webmaster@weatherforyou.com

Copyright © 2016, WeatherForYou.com LLC. All rights reserved.